Погода в Ишиме

Погода в Ишиме : погода сейчас, прогноз погоды и архив. Всё, что Вы хотите узнать о погоде в Ишиме!

Хотите узнать прогноз погоды в Ишиме? Тогда Вам сюда: Погода в Ишиме

Поиск расширенной информации на нашем сайте:

Другие новости

Новости СМИ2

Главная страница сайта

Новости сайта

02.10.2013

Напоминаем, что на нашем новом сайте вы можете получить высокодетализированные прогнозы погоды по пунктам России, СНГ и мира (включающие важные для авиации метеовеличины, такие как направление и скорость ветра, видимость, явления погоды, количество и форма облачности, нижняя и верхняя граница облачности), а также ознакомиться с разнообразными материалами по авиационной метеорологии и подборкой полезных ссылок на эту тему.

Сайт Метеоцентр.Азия посвящён разработке технологий оптимизации авиаметеорологического обслуживания, включая проектирование и перспективное создание нескольких автоматизированных авиаметеорологических систем:
- система выпуска высокодетальных прогностических карт явлений погоды для нижнего воздушного пространства по России и ближнему зарубежью;
- система верификации прогнозов TAF (выпускаемых синоптиками официальных АМСГ РФ и ближнего зарубежья) и AUTOTAF (выпускаемых сайтом Метеоцентр.Азия) - выявление ошибок, онлайн-сопоставление с фактической погодой METAR, автоматическое внесение коррективов в прогнозы при резком отклонении фактической погоды от прогноза, подсчёт оправдываемости прогнозов по элементам и в целом;
- система обработки, анализа и отображения авиаметеорологической информации для применения провайдерами метеорологической информации.


Погода в Ишиме - сегодня

Время (UTC), дата Ветер
(°,м/с) 
Видим.   Явления Облачность Т
(°С)
Тd
(°С)
f(%) Тe
(°С)
Pmin
(гПа)
dP
(гПа)
Po
(мм)
O2
(г/м3)
Тmin Tmax R s Состояние
почвы
09 16.01.17 180 (Ю) 20000 м    1/0 верхняя 
[Ci fib]
-16 -18.9 78 -20  1037.7  -0.2  770  331           
12 16.01.17 190 (Ю) 20000 м    3/0 средняя, верхняя 
[Ac trans|Ci fib]
-17.3 -19.3 84 -21  1038.2  0.4  770  333           
15 16.01.17 190 (Ю) 10 км    ясно 
-18.5 -20.5 84 -21  1038.4  0.1  770  335    -15.8       
18 16.01.17 190 (Ю) 10 км    ясно 
-19.1 -21.3 83 -22  1038.5  0.1  770  335           
21 16.01.17 190 (Ю) 10 км    ясно 
-22.1 -24.5 81 -22  1039  0.3  771  340           
00 17.01.17 180 (Ю) 10 км    ясно 
-22.1 -24.6 80 -25  1039.5  0.5  771  340           
03 17.01.17 180 (Ю) 10 км  [диам. изморози 10 мм]  ясно 
-21.3 -23.7 81 -24  1039.4  -0.1  771  339  -23.2      49  равномерный
сухой снег
100% 
06 17.01.17 230 (ЮЗ) 20000 м  [диам. изморози 10 мм]  3/0 верхняя 
[Ci fib]
-19.1 -21.4 82 -22  1039.6  0.3  771  336           
09 17.01.17 180 (Ю) 20000 м  [диам. изморози 0 мм]  1/0 верхняя 
[Ci fib]
-15.2 -17.7 81 -17  1039.4  0.3  771  331           
12 17.01.17 190 (Ю) 20000 м    ясно 
-18.4 -21 80 -21  1039.7  0.1  771  335           
15 17.01.17 190 (Ю) 10 км    ясно 
-23.2 -25.7 80 -26  1040.3  0.4  772  342    -15       
18 17.01.17 190 (Ю) 10 км    ясно 
-24.2 -26.9 78 -25  1039.8  -0.5  771  343           
21 17.01.17 190 (Ю) 10 км    ясно 
-23.6 -26.2 79 -27  1039.2  -0.6  771  342           
00 18.01.17 200 (Ю) 10 км  [диам. изморози 3 мм]  ясно 
-24.1 -26.7 79 -25  1039  -0.2  771  342           
03 18.01.17 200 (Ю) 10 км  [диам. изморози 6 мм]  ясно 
-23 -25.7 78 -23  1038.2  -0.8  770  341  -25.4      49  равномерный
сухой снег
100% 
06 18.01.17 190 (Ю) 20000 м  [диам. изморози 6 мм]  10/0 верхняя 
[Cs]
-21.1 -23.5 81 -24  1037.9  -0.2  770  338           
09 18.01.17 180 (Ю) 20000 м  [диам. изморози 6 мм]  3/0 верхняя 
[Ci fib]
-17.8 -20.6 79 -20  1036.9  -0.8  769  333           
12 18.01.17 190 (Ю) 20000 м  [диам. изморози 6 мм]  10/0 средняя 
[Ac As]
-19.2 -21.7 81 -22  1036.7  -0.2  769  335           
15 18.01.17 200 (Ю) 10 км  [диам. изморози 0 мм]  ясно 
-21.9 -24.3 81 -25  1035.8  -1.1  768  338    -17.7       
18 18.01.17 190 (Ю) 10 км    ясно 
-19.9 -22.1 83 -24  1034.8  -0.9  768  335           
21 18.01.17 190 (Ю) 10 км    ясно 
-20.1 -22.4 82 -23  1033.6  -1.2  767  335           
00 19.01.17 180 (Ю) 10 км  [диам. изморози 8 мм]  10/0 верхняя 
[Cs]
-19.4 -21.7 82 -20  1032.7  -0.9  766  334           
03 19.01.17 230 (ЮЗ) 4000 м  дымка [диам. изморози 11 мм]  10/0 верхняя 
[Cs]
-20.8 -23.3 80 -21  1031.3  -1.3  765  335  -21.9      49  равномерный
сухой снег
100% 
06 19.01.17 тихо ()   4000 м  дымка  10/0 верхняя 
[Ci fib]
-19 -21.4 81 -19  1030.5  -0.8  764  333           
09 19.01.17 070 (В) 4000 м  дымка [диам. изморози 11 мм]  6/0 верхняя 
[Ci fib]
-17.1 -19.3 83 -17  1028.2  -2.2  763  329           
Время (UTC), дата Ветер
(°,м/с) 
Видим.   Явления Облачность Т
(°С)
Тd
(°С)
f(%) Тe
(°С)
Pmin
(гПа)
dP
(гПа)
Po
(мм)
O2
(г/м3)
Тmin Tmax R s Состояние
почвы

Для получения пояснительной информации подведите курсор к названию столбца.

ПОГОДА в Ишиме - архив

Всё, что Вы хотите узнать о погоде в Ишиме - удобно и подробно!

Выберите нужную дату (начиная с 1 января 2015* года) и нажмите кнопку "Найти".
Будут отображены архивные сводки погоды по пункту Ишим, начиная с указанной даты.


Отображать данные в формате CSV (для использования в таблицах Excel)


Внимание! Наш архив погоды предназначен исключительно для личного некоммерческого использования в познавательных целях. Если Вам необходимы официальные справки о состоянии погоды (для производственных, юридических, коммерческих и т.п. целей), обращайтесь в органы Росгидромета.

*Примечание: данная дата относится к архиву по метеостанциям СССР (Россия, СНГ, Балтия).
Архив по метеостанциям Зарубежной Европы и Азии (кроме Китая) хранится 10 дней, по другим регионам земного шара (Китай, Африка, Америка, Австралия, Океания) - 1 день.

Ишим - район местоположения метеостанции


Название, широта, долгота, высота метеостанции:
Ишим 56.1°ш. 69.4°д. 82 м над ур. моря [Российская Федерация]

Дополнительная информация

В oтличие oт бoльшинства пoгoдных сайтoв мы публикуем пoдрoбную метеoинфoрмацию в детальнoм прoфессиoнальнoм фoрмате.

Характеристики температуры и влажнoсти вoздуха измеряются на высoте 2 м в тени вдали oт зданий и деревьев.
Скoрoсть ветра измеряется на высoте 10 м (на урoвне рoста челoвека скoрoсть ветра ниже в 1.5-2 раза). Если метеoстанция нахoдится в гoрoде или в лесу, тo скoрoсть ветра занижена на 2-4 м/с пo сравнению с oткрытым местoм. Скoрoсть ветра над акватoриями крупных рек и oзёр, а также на вершинах хoлмoв на 2-5 м/с выше, чем в oбычных услoвиях.
Атмoсфернoе давление в разных тoчках местнoсти мoжет значительнo oтличаться oт давления на метеoстанции, в зависимoсти oт услoвий рельефа (при пoдъёме на 10 м давление пoнижается примернo на 1 мм рт.ст.).